Anula, Australia

5:30 AM ACST on January 20, 2018 (GMT +0930)
Anula

Weather History for 94120 - February, 2014

Change the Weather History Date:

Saturday, February 1, 2014

  Actual Average Record
Temperature  
Mean Temperature 80 °F -  
Max Temperature 86 °F 89 °F - ()
Min Temperature 74 °F 76 °F - ()
Cooling Degree Days 15    
Growing Degree Days 30 (Base 50)    
Moisture  
Dew Point 76 °F    
Average Humidity 84    
Maximum Humidity 95    
Minimum Humidity 67    
Precipitation  
Precipitation 0.08 in 0.45 in - ()
Sea Level Pressure  
Sea Level Pressure 29.58 in    
Wind  
Wind Speed 22 mph ()    
Max Wind Speed 29 mph    
Max Gust Speed 40 mph    
Visibility 5.2 miles    
Events Rain    
T = Trace of Precipitation, MM = Missing Value Source: Averaged Metar Reports

Daily Weather History Graph

Daily Weather History Graph

Search for Another Location

Airport or City:

Trip Planner

Search our weather history database for the weather conditions in past years. The results will help you decide how hot, cold, wet, or windy it might be!

Date:

Astronomy

Feb. 01, 2014 Rise Set
Actual Time 6:40 AM ACST 7:19 PM ACST
Civil Twilight 6:18 AM ACST 7:41 PM ACST
Nautical Twilight 5:52 AM ACST 8:07 PM ACST
Astronomical Twilight 5:25 AM ACST 8:34 PM ACST
Moon 7:44 AM ACST (2/1) 8:23 PM ACST (2/1)
Length of Visible Light 13h 22m
Length of Day
12h 38m
New Moon, 2% of the Moon is Illuminated
Feb 1
New Moon
Feb 7
First Quarter
Feb 15
Full
Feb 23
Last Quarter
Mar 1
New

Hourly Weather History & Observations

Time (ACST) Temp. Heat Index Dew Point Humidity Pressure Visibility Wind Dir Wind Speed Gust Speed Precip Events Conditions
12:00 AM 78 °F - 77 °F 95% 29.61 in 1 mi NW 21.9 mph - - Rain Heavy Rain Showers
12:00 AM 78.8 °F - 77.0 °F 94% 29.59 in 0.6 mi NW 21.9 mph - N/A Rain Heavy Rain Showers
12:16 AM 78.8 °F - 77.0 °F 94% 29.59 in 3.1 mi NW 23.0 mph - N/A Rain Rain Showers
12:30 AM 79 °F - 76 °F 90% 29.60 in - NW 23.0 mph - -  
12:30 AM 78.8 °F - 77.0 °F 94% 29.59 in 1.9 mi NW 23.0 mph 35.7 mph N/A Rain Rain
1:00 AM 78.8 °F - 77.0 °F 94% 29.59 in 3.7 mi WNW 24.2 mph 38.0 mph N/A Rain Rain
1:30 AM 80.6 °F 87.1 °F 77.0 °F 89% 29.59 in 5.0 mi WNW 26.5 mph - N/A   Mostly Cloudy
1:42 AM 80.6 °F 87.1 °F 77.0 °F 89% 29.56 in 1.9 mi WNW 24.2 mph 35.7 mph N/A Rain Rain Showers
1:46 AM 78.8 °F - 77.0 °F 94% 29.59 in 1.9 mi West 24.2 mph - N/A Rain Rain Showers
1:52 AM 78.8 °F - 77.0 °F 94% 29.56 in 1.2 mi West 21.9 mph 33.4 mph N/A Rain Heavy Rain Showers
2:00 AM 78.8 °F - 75.2 °F 89% 29.56 in 3.1 mi WNW 25.3 mph 36.8 mph N/A Rain Rain Showers
2:30 AM 78.8 °F - 77.0 °F 94% 29.56 in 3.7 mi WNW 26.5 mph - N/A Rain Rain
3:00 AM 80 °F - 76 °F 84% 29.55 in 4 mi WNW 21.9 mph - - Rain Light Rain
3:00 AM 80.6 °F 87.1 °F 77.0 °F 89% 29.53 in 3.7 mi WNW 21.9 mph - N/A Rain Light Rain
3:21 AM 82.4 °F 90.9 °F 77.0 °F 84% 29.53 in 3.7 mi WNW 24.2 mph 35.7 mph N/A Rain Light Rain Showers
3:30 AM 82 °F - 76 °F 78% 29.54 in - WNW 25.3 mph - -  
3:30 AM 82.4 °F 90.9 °F 77.0 °F 84% 29.53 in 5.6 mi WNW 25.3 mph - N/A Rain Light Rain
3:32 AM 82.4 °F 90.9 °F 77.0 °F 84% 29.53 in 5.6 mi WNW 25.3 mph 36.8 mph N/A Rain Rain
4:00 AM 82.4 °F 89.5 °F 75.2 °F 79% 29.53 in 5.6 mi WNW 26.5 mph - N/A Rain Light Rain
4:23 AM 80.6 °F 87.1 °F 77.0 °F 89% 29.56 in 5.0 mi West 24.2 mph 35.7 mph N/A Rain Light Rain
4:27 AM 80.6 °F 86.2 °F 75.2 °F 84% 29.56 in 5.0 mi WSW 11.5 mph - N/A Rain Light Rain
4:30 AM 80.6 °F 86.2 °F 75.2 °F 84% 29.56 in 5.0 mi WSW 13.8 mph - N/A Rain Light Rain
4:40 AM 78.8 °F - 77.0 °F 94% 29.53 in 1.9 mi West 20.7 mph - N/A Rain Rain
5:00 AM 80.6 °F 86.2 °F 75.2 °F 84% 29.53 in 5.0 mi West 23.0 mph 34.5 mph N/A Rain Light Rain
5:30 AM 82.4 °F 90.9 °F 77.0 °F 84% 29.53 in 6.2 mi WNW 25.3 mph - N/A   Mostly Cloudy
5:33 AM 82.4 °F 90.9 °F 77.0 °F 84% 29.53 in 5.0 mi West 25.3 mph 36.8 mph N/A   Mostly Cloudy
6:00 AM 82 °F - 76 °F 77% 29.55 in 6 mi West 26.5 mph - -   Overcast
6:00 AM 82.4 °F 89.5 °F 75.2 °F 79% 29.56 in 6.2 mi West 26.5 mph - N/A   Mostly Cloudy
6:30 AM 82 °F - 76 °F 77% 29.56 in - West 26.5 mph - -  
6:30 AM 82.4 °F 89.5 °F 75.2 °F 79% 29.56 in 6.2 mi West 26.5 mph - N/A   Mostly Cloudy
7:00 AM 82.4 °F 90.9 °F 77.0 °F 84% 29.56 in 6.2 mi West 26.5 mph - N/A   Mostly Cloudy
7:26 AM 80.6 °F 86.2 °F 75.2 °F 84% 29.56 in 3.1 mi WSW 13.8 mph - N/A Rain Rain Showers
7:30 AM 78.8 °F - 77.0 °F 94% 29.56 in 3.7 mi West 15.0 mph - N/A Rain Rain Showers
7:44 AM 78.8 °F - 77.0 °F 94% 29.56 in 1.2 mi West 15.0 mph - N/A Rain Rain Showers
7:49 AM 78.8 °F - 77.0 °F 94% 29.59 in 1.9 mi West 18.4 mph 32.2 mph N/A Rain Rain Showers
7:51 AM 78.8 °F - 77.0 °F 94% 29.59 in 3.1 mi WNW 26.5 mph - N/A Rain Rain Showers
8:00 AM 78.8 °F - 77.0 °F 94% 29.59 in 4.3 mi WNW 24.2 mph - N/A Rain Light Rain Showers
8:11 AM 78.8 °F - 77.0 °F 94% 29.59 in 1.2 mi West 26.5 mph - N/A Rain Rain Showers
8:20 AM 77.0 °F - 75.2 °F 94% 29.59 in 1.6 mi West 28.8 mph 40.3 mph N/A Rain Rain Showers
8:26 AM 77.0 °F - 73.4 °F 89% 29.59 in 4.3 mi West 27.6 mph 40.3 mph N/A Rain Light Rain Showers
8:30 AM 78.8 °F - 75.2 °F 89% 29.59 in 4.3 mi West 25.3 mph - N/A Rain Light Rain Showers
8:52 AM 80.6 °F 87.1 °F 77.0 °F 89% 29.59 in 6.2 mi West 25.3 mph - N/A   Mostly Cloudy
9:00 AM 81 °F - 77 °F 83% 29.60 in 9 mi WNW 23.0 mph - - Rain Light Rain Showers
9:00 AM 80.6 °F 87.1 °F 77.0 °F 89% 29.59 in 6.2 mi WNW 23.0 mph - N/A   Mostly Cloudy
9:30 AM 82 °F - 76 °F 78% 29.60 in - WNW 25.3 mph - -  
9:30 AM 82.4 °F 90.9 °F 77.0 °F 84% 29.59 in 6.2 mi WNW 25.3 mph - N/A   Mostly Cloudy
10:00 AM 82.4 °F 90.9 °F 77.0 °F 84% 29.59 in 6.2 mi WNW 21.9 mph - N/A   Mostly Cloudy
10:30 AM 82.4 °F 90.9 °F 77.0 °F 84% 29.59 in 5.6 mi WNW 25.3 mph - N/A   Mostly Cloudy
11:00 AM 84.2 °F 92.3 °F 75.2 °F 74% 29.62 in 6.2 mi WNW 25.3 mph - N/A Rain Light Rain Showers
11:30 AM 84.2 °F 92.3 °F 75.2 °F 74% 29.59 in 6.2 mi WNW 25.3 mph - N/A Rain Light Rain Showers
12:00 PM 84 °F - 76 °F 71% 29.61 in 19 mi WNW 24.2 mph - -   Partly Cloudy
12:00 PM 84.2 °F 94.1 °F 77.0 °F 79% 29.59 in 6.2 mi WNW 24.2 mph - N/A   Mostly Cloudy
12:30 PM 85 °F - 76 °F 69% 29.60 in - WNW 25.3 mph - -  
12:30 PM 84.2 °F 94.1 °F 77.0 °F 79% 29.59 in 5.0 mi WNW 25.3 mph - N/A Rain Light Rain Showers
1:00 PM 84.2 °F 92.3 °F 75.2 °F 74% 29.59 in 6.2 mi West 25.3 mph 36.8 mph N/A   Mostly Cloudy
1:30 PM 86.0 °F 96.9 °F 77.0 °F 74% 29.56 in 6.2 mi WNW 25.3 mph - N/A   Mostly Cloudy
2:05 PM 84.2 °F 94.1 °F 77.0 °F 79% 29.56 in 6.2 mi WNW 28.8 mph 40.3 mph N/A Rain Light Rain Showers
2:30 PM 84.2 °F 94.1 °F 77.0 °F 79% 29.56 in 6.2 mi WNW 26.5 mph - N/A   Mostly Cloudy
3:00 PM 84 °F - 75 °F 67% 29.56 in 19 mi West 28.8 mph - -   Partly Cloudy
3:00 PM 84.2 °F 92.3 °F 75.2 °F 74% 29.56 in 6.2 mi West 28.8 mph - N/A   Mostly Cloudy
3:30 PM 84 °F - 75 °F 69% 29.57 in - West 25.3 mph - -  
3:30 PM 84.2 °F 92.3 °F 75.2 °F 74% 29.56 in 6.2 mi West 25.3 mph 36.8 mph N/A   Mostly Cloudy
4:00 PM 84.2 °F 94.1 °F 77.0 °F 79% 29.56 in 6.2 mi West 23.0 mph - N/A   Mostly Cloudy
4:30 PM 82.4 °F 89.5 °F 75.2 °F 79% 29.56 in 6.2 mi West 24.2 mph - N/A   Mostly Cloudy
5:00 PM 82.4 °F 89.5 °F 75.2 °F 79% 29.56 in 6.2 mi West 25.3 mph - N/A   Mostly Cloudy
5:30 PM 82.4 °F 89.5 °F 75.2 °F 79% 29.56 in 6.2 mi West 24.2 mph - N/A   Mostly Cloudy
5:54 PM 80.6 °F 87.1 °F 77.0 °F 89% 29.56 in 3.1 mi West 28.8 mph - N/A Rain Light Rain Showers
6:00 PM 78 °F - 76 °F 94% 29.57 in 3 mi West 28.8 mph - - Rain Light Rain Showers
6:00 PM 78.8 °F - 77.0 °F 94% 29.56 in 3.1 mi West 28.8 mph - N/A Rain Light Rain Showers
6:20 PM 80.6 °F 86.2 °F 75.2 °F 84% 29.56 in 6.2 mi West 20.7 mph - N/A   Overcast
6:30 PM 80 °F - 75 °F 81% 29.58 in - West 19.6 mph - -  
6:30 PM 80.6 °F 86.2 °F 75.2 °F 84% 29.56 in 6.2 mi West 19.6 mph - N/A   Overcast
7:00 PM 80.6 °F 85.4 °F 73.4 °F 79% 29.59 in 6.2 mi West 20.7 mph - N/A   Overcast
7:30 PM 82.4 °F 89.5 °F 75.2 °F 79% 29.59 in 6.2 mi West 15.0 mph - N/A   Overcast
7:35 PM 82.4 °F 89.5 °F 75.2 °F 79% 29.59 in 6.2 mi West 17.3 mph 31.1 mph N/A   Overcast
8:00 PM 82.4 °F 89.5 °F 75.2 °F 79% 29.62 in 6.2 mi West 20.7 mph - N/A   Overcast
8:30 PM 82.4 °F 89.5 °F 75.2 °F 79% 29.62 in 6.2 mi West 18.4 mph - N/A Rain Light Rain Showers
9:00 PM 80 °F - 76 °F 82% 29.65 in 9 mi West 16.1 mph - - Rain Light Rain
9:00 PM 80.6 °F 86.2 °F 75.2 °F 84% 29.65 in 6.2 mi West 16.1 mph - N/A Rain Light Rain
9:30 PM 81 °F - 76 °F 82% 29.66 in - West 12.7 mph - -  
9:30 PM 80.6 °F 87.1 °F 77.0 °F 89% 29.65 in 6.2 mi West 12.7 mph - N/A   Mostly Cloudy
10:00 PM 80.6 °F 86.2 °F 75.2 °F 84% 29.65 in 6.2 mi West 18.4 mph - N/A Rain Light Rain
10:30 PM 80.6 °F 86.2 °F 75.2 °F 84% 29.68 in 6.2 mi West 11.5 mph - N/A   Mostly Cloudy
11:00 PM 82.4 °F 89.5 °F 75.2 °F 79% 29.68 in 6.2 mi West 16.1 mph - N/A   Mostly Cloudy
11:30 PM 82.4 °F 89.5 °F 75.2 °F 79% 29.68 in 6.2 mi WNW 15.0 mph - N/A   Mostly Cloudy